Wind_Speed
11 10 10 9 9 10 9 8 11 15 15 14 13 13 14 14 14 14 13 13 13 13 13 12 11 10 8 7 7 6 6 5 5 5 5 5 4 4 4 4 3 3 3 3 2 2 2 3 3
10 10 9 9 8 11 13 13 16 18 17 16 14 14 14 14 14 14 14 15 14 13 13 12 11 10 9 8 7 7 6 6 6 6 6 5 5 5 5 5 4 4 4 4 4 3 3 3 3
9 9 9 8 9 10 13 17 20 20 19 17 15 14 14 14 14 14 15 16 15 14 13 13 11 10 10 8 8 7 7 7 6 6 6 6 6 6 6 6 6 5 5 5 5 5 5 5 5
9 8 8 8 9 11 15 20 21 21 20 16 16 14 14 15 16 15 15 16 15 15 15 13 11 10 9 9 8 8 8 7 7 7 7 7 7 7 7 8 7 7 7 7 7 7 7 6 6
9 7 7 10 9 12 18 22 21 19 18 17 18 16 14 14 15 16 16 15 15 15 14 14 12 11 10 9 9 9 8 8 8 8 8 8 8 8 8 8 8 8 9 9 9 8 8 8 8
8 6 8 9 10 14 19 22 20 18 18 17 18 17 14 15 15 17 17 16 16 15 15 15 13 11 10 9 9 9 9 9 9 9 9 9 9 9 8 8 9 9 8 9 9 8 9 9 8
7 6 7 6 9 15 20 20 18 17 17 16 17 17 14 15 16 17 17 17 16 16 16 15 14 12 11 10 10 10 9 10 10 10 10 10 9 9 9 9 9 8 8 8 8 9 9 10 10
7 7 5 3 9 14 18 20 18 16 17 15 16 16 15 15 16 16 16 16 15 16 16 15 14 13 12 11 10 10 10 11 11 10 10 10 10 9 9 9 9 8 8 8 8 9 9 10 11
7 8 5 6 12 14 17 19 19 17 15 15 15 16 16 14 16 16 16 16 16 16 17 17 15 14 13 12 11 11 11 11 11 11 10 10 10 10 9 8 8 8 8 8 8 8 9 9 10
6 8 6 10 12 14 15 17 17 17 17 15 14 15 14 14 14 16 17 16 17 19 18 17 16 15 13 12 12 12 12 11 11 11 10 10 10 8 8 8 8 8 8 8 8 8 8 9 9
7 5 7 10 12 14 14 15 16 17 17 16 16 17 15 12 14 16 17 17 17 18 19 19 17 15 14 13 12 11 11 11 10 10 10 9 8 7 6 7 6 6 7 7 7 8 8 7 8
9 8 10 12 14 15 15 15 16 17 18 16 17 17 16 14 14 17 17 17 19 18 18 18 17 15 14 13 12 11 10 10 9 9 8 7 6 6 6 6 6 6 6 6 6 6 6 6 7
9 10 12 14 16 17 18 17 16 16 16 17 17 17 15 13 14 18 18 18 19 19 18 17 17 16 15 13 12 11 10 9 9 8 6 6 6 6 6 5 5 5 5 6 6 5 5 5 6
9 9 11 13 16 19 19 18 18 17 17 18 18 17 15 12 15 16 17 18 19 18 18 17 15 15 14 12 12 10 9 8 7 7 6 5 4 4 4 4 5 5 5 4 4 5 5 5 5
9 11 14 16 19 18 19 19 19 19 19 20 18 17 15 14 14 15 16 18 20 19 18 18 16 15 14 12 11 9 8 7 6 6 4 3 3 3 3 4 4 4 4 4 4 4 4 4 4
11 13 17 18 18 21 22 21 21 20 20 20 18 17 14 13 13 14 16 18 18 18 17 17 16 15 14 12 11 9 8 6 5 4 4 3 2 2 3 3 3 3 3 4 4 4 4 4 4
12 15 16 18 20 21 21 21 23 20 20 19 19 17 14 12 12 12 14 15 16 17 17 17 17 16 14 13 11 9 7 6 5 4 3 2 1 1 2 2 2 3 4 4 4 4 4 4 5
10 11 13 15 18 19 19 20 20 21 20 20 18 15 12 11 11 11 12 14 14 15 15 15 15 14 13 12 11 9 8 7 6 4 3 2 1 0 1 2 2 3 4 4 4 5 5 5 5
10 11 15 15 16 19 18 17 18 19 19 20 18 15 12 10 9 10 11 12 13 14 15 15 15 14 13 11 10 10 9 7 6 5 3 2 1 1 1 2 3 4 4 5 5 6 6 6 6
11 13 15 16 17 18 16 15 15 17 17 18 18 15 12 10 9 8 10 11 12 13 14 16 15 13 13 11 10 10 9 8 7 5 4 3 3 2 2 2 3 4 5 5 6 6 7 8 8
13 14 15 16 14 15 16 16 15 15 17 17 17 15 12 10 8 7 6 7 9 11 12 14 14 14 14 12 11 9 8 8 7 6 5 4 4 2 2 1 2 3 4 5 6 6 7 8 8
14 14 16 15 14 15 13 14 15 15 15 16 16 15 12 10 9 7 5 5 7 9 11 13 14 14 14 12 11 10 9 8 8 7 6 5 4 3 2 1 1 1 2 3 4 5 7 8 8
14 14 14 14 16 15 13 12 12 15 15 15 16 14 11 10 9 7 4 5 7 8 10 11 13 14 13 12 11 11 11 9 9 8 7 6 5 4 3 2 1 1 2 3 5 6 7 8 9
14 14 13 16 19 16 13 11 11 15 15 16 16 14 11 9 8 7 4 4 6 8 9 11 12 13 12 11 11 12 11 10 10 9 8 7 6 5 4 4 3 3 4 5 6 7 9 9 10
14 15 16 17 20 19 17 12 11 14 15 15 15 14 11 9 8 7 5 4 5 7 9 10 12 11 11 11 11 12 12 11 11 10 9 8 8 7 6 6 6 6 7 8 9 9 10 11 11
14 15 17 18 17 18 16 14 13 13 14 14 14 13 11 8 8 7 6 4 4 6 8 9 10 10 11 11 12 13 13 12 12 11 11 10 10 9 9 9 9 9 10 10 11 12 13 13 14
16 15 16 18 16 17 16 15 14 12 13 15 14 13 11 9 8 7 6 5 4 4 6 8 10 10 11 11 12 13 13 13 13 13 13 12 12 11 11 11 12 12 13 14 15 15 16 17 17
17 16 15 15 15 14 17 20 16 14 14 14 13 13 11 9 8 8 7 5 5 4 6 8 9 10 11 13 13 12 12 13 14 14 14 14 14 14 14 14 15 15 16 17 18 19 19 20 20
18 18 16 14 15 15 18 21 18 16 14 14 13 13 12 10 8 8 8 7 6 6 6 7 9 10 12 12 12 12 13 14 15 15 15 16 16 17 17 17 17 18 19 20 21 22 22 23 23
21 19 17 16 15 14 15 21 18 14 12 14 14 14 12 11 10 10 9 8 7 6 7 7 8 10 11 12 13 14 15 16 16 16 17 18 18 19 19 20 20 21 21 22 23 24 24 25 25
Wind_Direction
350 350 350 351 357 352 344 340 313 302 300 300 298 291 282 276 271 256 259 245 232 229 229 228 226 227 230 236 243 248 252 259 265 267 265 264 267 271 273 274 276 277 281 281 284 292 308 319 321
349 347 345 350 352 351 331 313 299 302 302 300 295 287 279 273 267 261 259 249 234 230 231 230 227 230 234 239 245 251 257 262 265 268 270 272 276 278 279 278 277 278 277 277 277 278 284 290 292
346 343 346 357 2 339 314 301 299 298 298 299 294 286 280 274 267 263 257 248 232 229 228 226 228 233 238 240 248 255 258 263 265 268 273 276 277 279 278 278 278 276 274 274 274 273 273 275 275
343 342 354 16 8 323 299 294 298 298 298 294 289 284 278 272 269 264 256 247 231 223 222 222 230 236 240 242 250 256 260 263 266 269 273 275 276 276 277 279 278 276 273 272 272 270 268 268 265
340 341 21 28 354 303 294 296 300 299 296 294 289 282 274 267 264 258 254 248 234 220 220 220 229 235 239 244 248 254 258 262 267 272 274 274 275 277 280 280 278 276 276 274 271 268 264 262 260
342 351 42 8 328 294 294 302 306 302 298 294 287 282 272 268 263 256 248 241 232 218 219 221 225 230 235 240 248 254 257 262 267 272 275 275 276 279 280 280 279 278 277 275 272 267 261 259 256
353 22 47 346 304 296 297 305 311 305 301 296 287 283 272 260 258 252 243 239 229 221 220 217 219 225 232 237 245 253 256 262 267 270 274 276 278 280 279 279 280 279 278 278 274 269 263 259 257
19 59 75 317 285 289 299 308 313 313 307 301 291 284 280 262 257 248 240 237 230 226 218 214 217 224 231 236 243 251 257 263 266 268 272 275 276 276 277 278 278 277 276 279 277 270 264 261 257
38 61 32 297 287 292 301 308 314 316 309 302 296 290 286 265 251 249 242 236 230 225 218 216 218 224 230 236 244 252 257 262 264 267 271 275 276 276 274 276 278 278 277 278 275 271 267 265 262
36 40 343 299 300 303 304 310 316 316 309 304 293 290 284 268 253 249 241 232 228 225 221 217 220 226 232 237 244 249 255 259 262 266 272 276 280 282 283 282 280 278 278 277 275 275 271 268 267
17 2 323 319 316 318 318 318 319 315 308 309 302 297 290 267 258 248 240 233 228 225 225 221 223 225 232 239 248 255 259 261 263 270 273 278 282 284 285 283 286 287 284 283 282 279 275 270 270
358 353 343 339 337 337 334 327 323 319 311 311 307 300 291 271 259 242 235 235 234 233 234 228 225 228 232 239 249 255 258 263 269 272 275 280 287 289 289 290 293 295 292 290 291 289 287 280 273
352 342 341 344 344 342 341 338 327 319 309 312 309 299 292 274 258 241 236 234 237 236 238 242 232 230 235 240 246 253 258 262 267 271 275 285 290 289 287 293 298 299 299 298 297 293 294 294 284
7 349 335 328 333 339 341 337 329 327 318 317 311 303 295 276 263 248 236 235 238 239 240 236 235 233 236 242 249 251 256 257 256 261 271 285 294 298 301 309 314 312 308 306 309 308 306 302 298
7 349 335 334 340 338 336 333 333 335 332 327 317 307 299 281 264 253 241 237 239 236 238 235 232 230 235 241 244 246 246 245 250 255 268 284 294 309 320 324 326 328 330 328 330 331 326 320 315
356 344 337 334 338 334 336 335 335 336 333 333 326 316 298 282 268 260 240 239 238 236 235 234 233 232 233 235 239 238 235 234 238 248 267 278 293 318 337 342 353 2 360 359 357 355 352 345 337
355 346 334 326 328 328 332 333 334 334 332 330 326 320 310 284 270 259 245 239 234 234 233 232 232 232 231 234 233 233 228 222 230 242 250 261 290 327 356 8 20 21 17 16 14 11 11 4 358
325 322 314 311 315 320 326 329 335 336 336 334 332 329 319 301 282 262 249 241 232 231 231 232 232 233 233 232 231 228 221 223 228 229 223 224 233 69 38 38 41 35 30 29 30 26 28 23 15
302 307 307 310 310 317 324 330 333 335 340 338 336 336 331 316 295 273 260 245 235 231 229 232 234 235 234 232 228 225 219 223 221 213 204 195 171 138 94 77 61 50 44 40 39 36 34 32 26
302 303 309 311 312 322 326 327 328 331 337 341 342 340 339 325 313 290 262 244 234 232 230 230 231 234 229 225 225 224 219 218 215 205 199 192 172 153 113 85 69 57 50 48 46 41 34 28 23
294 298 302 308 314 314 321 325 324 334 339 343 346 344 339 332 323 314 278 243 229 227 228 230 231 232 227 226 222 219 215 214 211 203 199 190 179 166 147 121 81 59 49 45 41 36 27 20 15
290 293 298 307 307 300 308 307 318 333 336 342 347 347 344 339 337 324 282 245 231 229 230 231 229 229 224 216 216 216 211 207 205 203 199 193 188 183 180 166 111 60 35 23 16 10 5 2 0
284 288 295 301 295 292 303 308 315 327 332 335 342 342 341 341 344 341 304 258 241 231 226 227 225 220 218 216 214 211 208 206 206 206 205 203 205 205 211 218 227 284 325 335 340 339 342 346 348
287 293 303 311 311 311 322 321 312 319 325 329 334 336 334 335 342 348 325 276 246 233 227 230 227 222 222 218 213 210 209 210 210 212 212 214 219 224 235 245 253 271 291 305 316 320 325 330 333
284 294 303 309 320 329 327 311 302 315 322 323 327 329 329 331 335 343 342 310 258 238 231 227 225 221 217 214 213 216 217 214 214 218 221 225 231 237 246 255 263 275 285 295 303 310 314 318 321
275 288 296 302 309 310 304 295 294 307 319 324 323 325 325 324 330 334 339 326 286 243 230 222 219 221 221 219 222 224 222 219 221 227 230 233 239 245 252 260 266 274 282 290 296 300 305 309 313
273 278 286 292 299 301 300 289 282 301 312 320 321 319 320 319 321 324 329 327 309 249 236 230 225 228 227 226 228 226 224 226 230 235 237 241 246 252 256 262 268 275 281 288 292 295 299 302 305
271 275 278 280 286 295 299 298 302 312 312 320 318 314 309 309 312 316 321 319 307 280 248 239 237 238 234 230 231 230 232 234 239 241 243 248 254 258 261 266 272 277 281 286 289 292 295 297 300
270 274 273 272 271 278 293 301 305 309 312 320 316 308 307 299 299 301 305 305 304 288 271 251 244 242 236 234 234 236 239 242 246 245 249 254 259 263 267 270 274 278 282 286 288 290 293 295 296
258 259 266 272 273 273 279 286 290 294 296 309 308 300 301 294 293 293 295 292 293 283 268 261 254 251 244 242 242 244 247 249 249 251 254 258 262 266 270 273 276 279 282 285 287 289 291 293 294
Height
5896 5895 5895 5895 5895 5893 5889 5889 5889 5888 5888 5888 5887 5886 5885 5884 5884 5884 5882 5882 5885 5886 5888 5890 5892 5893 5894 5895 5896 5897 5897 5897 5898 5898 5898 5898 5897 5897 5897 5897 5897 5897 5897 5896 5896 5896 5896 5895 5895
5895 5895 5895 5894 5894 5892 5891 5890 5889 5887 5887 5886 5885 5884 5882 5881 5880 5879 5880 5881 5883 5885 5887 5889 5891 5892 5893 5894 5895 5896 5896 5897 5897 5897 5897 5897 5897 5896 5896 5896 5896 5896 5896 5896 5896 5895 5895 5895 5895
5895 5894 5894 5894 5893 5892 5891 5890 5888 5886 5885 5884 5882 5881 5880 5878 5877 5877 5879 5880 5882 5884 5886 5887 5889 5891 5892 5893 5894 5895 5895 5896 5896 5896 5896 5896 5896 5895 5895 5895 5895 5895 5895 5895 5895 5894 5894 5894 5894
5894 5894 5894 5894 5893 5894 5892 5889 5887 5884 5882 5881 5879 5879 5878 5877 5876 5876 5877 5878 5880 5882 5884 5886 5888 5890 5891 5892 5893 5894 5894 5895 5895 5895 5895 5895 5894 5894 5894 5894 5894 5894 5893 5893 5893 5893 5893 5893 5893
5893 5893 5893 5892 5893 5893 5891 5887 5885 5882 5880 5878 5877 5876 5875 5875 5874 5874 5875 5876 5878 5880 5882 5884 5887 5888 5890 5891 5892 5893 5893 5894 5894 5894 5894 5893 5893 5893 5893 5893 5892 5892 5892 5892 5892 5892 5892 5891 5891
5893 5891 5892 5893 5896 5892 5889 5885 5883 5880 5878 5876 5874 5873 5871 5872 5872 5872 5873 5874 5876 5878 5880 5882 5885 5887 5888 5889 5890 5891 5892 5892 5893 5893 5893 5892 5892 5892 5892 5891 5891 5890 5890 5890 5890 5890 5890 5890 5890
5892 5890 5892 5895 5896 5892 5887 5883 5880 5877 5875 5874 5872 5870 5868 5868 5870 5870 5870 5872 5874 5877 5878 5881 5883 5885 5887 5888 5889 5890 5890 5891 5891 5891 5891 5891 5891 5891 5890 5890 5890 5889 5889 5888 5888 5888 5888 5888 5888
5890 5890 5892 5894 5894 5890 5885 5881 5877 5875 5873 5871 5870 5868 5867 5866 5867 5867 5868 5869 5872 5874 5876 5878 5881 5883 5885 5886 5887 5888 5889 5889 5890 5890 5890 5890 5889 5889 5889 5888 5888 5888 5887 5887 5886 5886 5886 5887 5887
5890 5891 5891 5892 5890 5887 5883 5879 5876 5873 5871 5869 5867 5865 5865 5863 5864 5864 5866 5867 5870 5871 5873 5876 5879 5881 5883 5885 5885 5886 5887 5887 5888 5888 5888 5888 5888 5888 5887 5887 5886 5886 5886 5885 5885 5885 5885 5885 5885
5891 5891 5891 5890 5887 5884 5880 5877 5874 5871 5869 5866 5864 5862 5861 5861 5861 5862 5863 5865 5867 5868 5871 5873 5876 5879 5881 5883 5883 5884 5885 5886 5886 5887 5887 5887 5886 5886 5886 5886 5885 5885 5884 5884 5883 5883 5883 5884 5884
5890 5890 5889 5887 5884 5881 5878 5875 5872 5869 5866 5863 5862 5860 5856 5857 5859 5860 5861 5862 5864 5865 5868 5870 5873 5876 5878 5880 5881 5882 5883 5884 5884 5885 5885 5885 5885 5885 5885 5884 5884 5883 5883 5882 5882 5882 5882 5882 5882
5889 5888 5887 5885 5882 5879 5876 5874 5871 5868 5865 5862 5859 5857 5856 5856 5857 5857 5858 5861 5862 5864 5866 5867 5870 5873 5875 5878 5879 5880 5881 5882 5883 5883 5883 5883 5884 5884 5883 5883 5882 5882 5882 5881 5881 5881 5880 5880 5880
5889 5888 5886 5883 5881 5878 5875 5872 5869 5866 5862 5860 5857 5855 5853 5853 5854 5853 5854 5857 5860 5862 5865 5867 5869 5871 5873 5875 5877 5879 5880 5880 5881 5881 5882 5882 5882 5882 5882 5882 5881 5881 5880 5880 5880 5879 5879 5879 5879
5888 5887 5884 5881 5880 5877 5873 5871 5867 5865 5860 5858 5856 5853 5851 5851 5851 5850 5849 5854 5857 5860 5862 5864 5866 5869 5871 5873 5875 5877 5878 5879 5879 5880 5881 5881 5881 5881 5881 5881 5880 5880 5879 5879 5879 5878 5878 5878 5878
5886 5885 5882 5880 5878 5875 5873 5870 5866 5863 5860 5857 5854 5852 5850 5848 5847 5847 5848 5851 5854 5857 5860 5862 5864 5867 5869 5871 5873 5875 5876 5877 5878 5879 5880 5880 5880 5880 5880 5880 5879 5879 5879 5878 5878 5877 5877 5877 5876
5885 5884 5881 5879 5877 5875 5874 5869 5864 5860 5858 5855 5852 5850 5847 5846 5846 5846 5847 5849 5850 5853 5857 5860 5862 5865 5867 5869 5871 5873 5875 5876 5877 5878 5879 5879 5879 5879 5879 5879 5879 5879 5878 5878 5877 5877 5876 5876 5876
5885 5884 5883 5880 5878 5876 5873 5868 5864 5859 5857 5854 5851 5848 5846 5845 5845 5845 5845 5846 5848 5851 5854 5857 5860 5863 5865 5867 5870 5872 5873 5875 5876 5877 5877 5878 5878 5879 5879 5879 5879 5878 5878 5878 5877 5877 5876 5876 5875
5886 5886 5885 5881 5878 5875 5872 5868 5864 5859 5855 5853 5850 5846 5844 5843 5843 5843 5843 5845 5846 5848 5852 5855 5858 5861 5863 5866 5868 5870 5872 5874 5875 5876 5876 5877 5878 5878 5879 5879 5879 5878 5878 5878 5877 5877 5876 5876 5875
5885 5884 5882 5879 5876 5874 5871 5867 5863 5859 5856 5852 5849 5846 5844 5841 5841 5841 5842 5843 5845 5847 5850 5854 5856 5859 5861 5864 5867 5869 5871 5872 5874 5875 5876 5877 5877 5878 5879 5879 5879 5879 5878 5878 5877 5877 5876 5876 5875
5883 5882 5880 5878 5875 5872 5869 5866 5862 5858 5856 5853 5849 5846 5844 5842 5841 5840 5840 5842 5844 5845 5848 5852 5854 5857 5859 5862 5865 5867 5869 5871 5873 5874 5875 5876 5877 5878 5878 5879 5879 5879 5879 5878 5878 5878 5877 5876 5876
5881 5879 5878 5876 5873 5870 5867 5864 5861 5858 5856 5853 5850 5846 5844 5842 5840 5840 5839 5840 5842 5844 5847 5849 5852 5854 5857 5860 5863 5866 5868 5870 5872 5873 5875 5875 5876 5877 5878 5878 5879 5879 5879 5879 5879 5878 5878 5877 5876
5878 5877 5875 5873 5870 5867 5865 5862 5860 5857 5855 5852 5850 5847 5845 5843 5841 5839 5839 5840 5841 5843 5845 5847 5850 5852 5855 5858 5862 5864 5866 5868 5870 5872 5874 5875 5876 5877 5877 5878 5879 5879 5879 5879 5879 5878 5878 5877 5876
5875 5874 5872 5869 5865 5862 5861 5858 5857 5855 5854 5852 5850 5848 5846 5844 5842 5840 5839 5839 5841 5842 5844 5846 5848 5851 5853 5857 5860 5862 5865 5867 5869 5871 5873 5874 5875 5876 5877 5877 5878 5878 5878 5878 5878 5878 5877 5877 5876
5872 5871 5869 5866 5862 5858 5858 5857 5856 5854 5853 5852 5850 5848 5846 5844 5842 5841 5840 5839 5840 5841 5843 5845 5847 5850 5852 5855 5858 5861 5863 5865 5867 5869 5871 5873 5874 5875 5876 5876 5877 5877 5877 5877 5877 5877 5876 5876 5875
5870 5868 5867 5865 5861 5858 5856 5855 5854 5853 5852 5851 5850 5848 5846 5844 5843 5841 5840 5839 5838 5840 5842 5844 5846 5848 5851 5853 5856 5859 5861 5864 5866 5868 5870 5871 5873 5874 5874 5875 5875 5875 5876 5876 5876 5875 5875 5874 5873
5867 5866 5865 5863 5861 5859 5856 5853 5852 5851 5851 5850 5849 5847 5846 5845 5843 5842 5841 5840 5839 5839 5841 5843 5845 5847 5850 5852 5855 5857 5860 5862 5864 5866 5868 5869 5871 5871 5872 5873 5873 5873 5874 5874 5874 5873 5873 5872 5871
5863 5863 5863 5861 5859 5857 5854 5851 5847 5848 5848 5848 5847 5846 5845 5844 5843 5842 5841 5840 5840 5840 5841 5842 5844 5846 5848 5851 5853 5855 5857 5859 5862 5864 5865 5867 5868 5869 5869 5870 5870 5871 5871 5871 5871 5870 5870 5869 5868
5860 5860 5860 5858 5857 5855 5853 5848 5845 5845 5846 5846 5845 5845 5844 5844 5843 5842 5841 5841 5840 5840 5840 5841 5843 5845 5846 5849 5851 5853 5855 5857 5859 5861 5862 5864 5865 5866 5866 5867 5867 5867 5867 5867 5867 5867 5866 5865 5864
5856 5856 5855 5855 5854 5853 5851 5849 5845 5844 5844 5844 5843 5843 5843 5842 5842 5841 5841 5840 5840 5839 5840 5840 5842 5843 5845 5846 5848 5851 5852 5854 5856 5857 5859 5860 5861 5862 5862 5863 5863 5863 5863 5863 5862 5862 5861 5860 5859
5850 5850 5850 5850 5850 5850 5849 5849 5844 5843 5841 5842 5842 5841 5841 5840 5840 5840 5840 5839 5839 5839 5839 5840 5840 5841 5842 5844 5846 5848 5849 5851 5852 5854 5855 5856 5856 5857 5857 5858 5858 5858 5858 5857 5857 5856 5856 5855 5854